Regional Weather Roundup
Issued by NWS Goodland, KS

Home | Current Version | Previous Version | Graphics & Text | Print | Product List | Glossary On
Versions: 1 2 3 4 5 6 7 8 9 10 11 12 13 14 15 16 17 18 19 20 21 22 23 24 25 26 27 28 29 30 31 32 33 34 35 36 37 38 39 40 41 42 43 44 45 46 47 48 49 50
000
ASUS43 KGLD 230408
RWRGLD

GOODLAND FORECAST AREA HOURLY WEATHER ROUNDUP
NATIONAL WEATHER SERVICE GOODLAND KS
900 PM MST WED FEB 22 2017

...OFFICIAL OBSERVATIONS...

CITY           SKY/WX    TMP DP  RH WIND       PRES   REMARKS
GOODLAND KS    CLEAR     37  21  52 NE7       29.71S
HILL CITY KS   CLEAR     42  24  49 E6        29.71F
IMPERIAL NEB   CLEAR     39  21  48 NE9       29.75S
MCCOOK NEB     CLEAR     42  23  46 E6        29.73S
AKRON CO       CLEAR     36  15  42 NE13      29.74S
BURLINGTON CO  CLEAR     44  21  40 E14       29.70F
LIMON CO       CLEAR     45  19  35 VRB7      29.72R
$$

...UNOFFICIAL OBSERVATIONS...

CITY           SKY/WX    TMP DP  RH WIND       PRES   REMARKS
LENORA KS        N/A     49  32  52 CALM        N/A
NORTON KS      CLEAR     43  18  36 NE8       29.72
SHARON SPRINGS   N/A     45  23  42 E5          N/A
TRENTON NEB      N/A     44  32  63 NE6         N/A
KIT CARSON CO    N/A     44  23  43 MISG        N/A
YUMA CO        FAIR      32  18  55 N8        29.73F
$$



USA.gov is the U.S. government's official web portal to all federal, state and local government web resources and services.